Wetbulb
58.00 57.76 55.17 55.09 53.29 52.57 51.73 50.91 50.84 49.82 49.93 49.40 48.98 47.47 45.99 44.02 46.55 47.05 45.09 45.05 45.31 44.66 44.61 44.66 44.78 44.74 44.65 45.21 44.61 46.33 45.47 43.13 40.49 41.61 41.47 42.73 42.15 42.51 44.23 44.74 47.26 47.86 46.91
58.82 57.30 54.84 55.01 53.79 51.81 50.45 50.35 50.69 50.37 49.89 49.55 48.66 47.75 47.50 45.24 46.58 47.27 46.69 48.61 47.13 46.41 45.76 45.07 46.09 47.81 45.71 45.88 45.36 47.12 46.93 47.59 45.50 40.20 40.47 40.98 40.72 41.69 42.59 42.83 44.57 46.09 43.67
58.36 57.88 56.62 55.45 52.95 50.66 50.40 50.02 49.49 49.65 49.17 48.84 48.66 48.31 47.64 46.87 45.06 46.67 47.67 48.57 47.46 45.97 46.10 44.97 45.17 46.40 45.62 45.45 45.61 47.29 47.98 48.29 44.82 42.45 42.78 38.92 39.71 39.98 40.66 40.96 41.52 41.63 44.28
58.59 58.05 56.58 55.75 53.58 51.19 50.58 49.93 49.19 49.60 50.08 49.41 49.50 48.95 47.92 46.31 46.90 47.41 47.32 46.96 45.80 45.97 46.01 46.46 47.12 45.59 45.21 45.53 47.51 49.20 47.72 43.71 40.88 43.05 41.32 38.42 37.63 38.99 38.89 38.59 38.76 38.56 38.99
58.25 57.73 56.01 55.23 53.07 51.14 51.21 50.55 49.46 49.54 50.86 51.18 49.74 48.01 47.08 47.43 47.45 46.26 46.38 45.87 45.17 44.96 46.11 45.20 45.15 47.84 53.65 52.91 49.85 47.85 45.24 42.86 43.39 41.21 36.42 34.74 35.72 37.09 37.18 37.50 36.67 36.76 37.32
57.90 57.43 56.04 55.01 54.16 52.56 51.34 50.42 49.80 50.03 51.72 50.85 49.65 49.51 48.51 49.14 48.58 48.89 47.71 44.48 45.18 44.73 43.50 44.49 46.58 50.92 50.85 50.08 49.92 49.27 45.97 40.78 37.18 35.49 34.48 34.81 35.93 39.79 40.82 36.83 35.30 34.61 34.34
57.72 57.85 56.21 55.14 53.41 52.75 52.16 51.23 50.40 50.53 51.94 51.61 50.49 49.91 49.31 50.10 47.46 47.41 49.14 45.16 43.88 43.73 44.11 46.84 47.61 45.98 44.20 42.02 45.04 45.53 44.54 46.52 44.64 38.56 35.73 36.16 39.01 41.97 40.95 37.70 36.85 35.54 37.83
56.97 57.25 56.59 55.21 54.79 53.79 52.80 51.82 50.66 51.73 51.36 50.67 49.39 48.39 48.50 50.24 48.51 46.30 47.23 45.05 43.91 45.22 48.16 45.20 45.00 39.45 39.63 40.91 39.99 39.28 39.80 39.91 40.72 42.07 38.78 39.44 40.03 42.33 42.30 42.89 40.64 40.01 40.96
56.29 56.20 56.45 55.58 55.23 54.29 53.39 52.09 52.37 52.51 52.02 51.05 49.85 47.85 48.20 47.89 47.26 46.04 45.62 44.80 46.03 48.47 45.24 45.23 40.54 38.86 41.70 42.95 39.64 38.62 38.84 39.24 43.59 45.80 45.56 44.72 44.05 44.58 45.62 43.13 41.21 39.39 40.59
55.96 56.27 56.48 56.98 56.25 54.80 53.99 53.47 53.34 53.24 52.76 51.77 50.45 48.44 48.14 47.03 46.03 45.75 45.62 47.99 48.62 44.39 40.78 40.90 44.37 39.86 40.92 41.76 38.58 37.96 37.61 38.30 38.70 39.88 40.52 42.19 43.70 44.27 46.73 43.54 43.25 41.51 41.28
56.64 56.66 56.50 57.05 56.67 55.90 54.86 54.40 53.12 52.71 52.10 51.37 50.37 48.95 47.86 47.73 47.46 44.81 46.28 47.31 45.13 40.56 40.49 39.42 38.83 41.21 40.82 40.62 41.07 38.12 38.38 39.06 39.95 38.33 38.48 39.97 40.95 41.28 42.37 42.78 44.29 43.96 42.24
58.01 57.55 56.84 56.88 57.36 57.10 55.01 54.18 53.72 52.43 52.00 51.12 48.72 47.39 46.83 48.02 46.59 44.31 44.97 43.12 42.83 39.84 40.07 40.68 40.62 40.49 39.83 40.37 40.14 40.20 40.30 41.16 38.22 38.25 37.71 38.30 38.51 39.95 41.91 42.06 41.18 42.94 45.25
57.72 57.04 57.78 57.84 57.62 56.71 54.74 53.65 52.56 52.77 52.12 49.75 48.28 46.74 46.97 49.27 46.48 43.98 41.34 41.35 42.51 39.51 39.36 39.22 40.49 40.04 39.77 39.56 40.66 41.46 41.73 38.71 38.08 37.17 36.25 36.61 40.96 41.98 42.01 40.65 41.85 41.66 41.39
57.57 57.91 57.92 57.07 56.10 55.62 55.20 54.60 53.59 52.88 51.49 48.93 47.71 45.89 45.53 46.01 43.83 41.19 37.93 37.49 40.67 38.57 39.87 37.20 40.24 40.89 40.12 39.67 40.91 40.42 39.35 38.43 37.98 36.85 37.75 39.85 39.23 39.69 38.30 38.28 38.26 38.64 37.52
57.57 57.27 56.66 56.26 55.54 55.46 55.08 54.09 54.50 53.68 51.61 49.55 48.09 46.61 46.95 43.93 42.38 39.73 36.42 35.40 35.05 36.74 36.99 36.67 36.91 37.14 37.38 36.99 37.14 37.56 37.28 37.16 36.59 36.16 36.01 39.00 39.32 40.35 40.60 38.29 36.66 35.91 34.03
56.89 56.52 56.12 55.88 54.67 51.76 47.92 44.40 39.74 40.95 40.03 39.59 41.65 46.76 44.73 42.05 38.83 38.12 37.75 37.42 37.47 37.50 35.31 34.40 34.76 35.98 36.97 37.06 36.11 36.27 35.90 37.83 35.94 35.46 35.51 38.52 39.75 39.82 38.53 37.61 36.14 34.24 33.32
56.44 56.22 56.30 52.70 51.18 49.57 49.23 47.85 44.57 40.96 38.83 38.60 39.32 39.59 39.41 38.28 37.91 37.71 37.58 37.31 36.73 37.05 35.48 34.73 34.45 34.81 37.20 36.63 35.72 35.01 35.34 35.92 34.95 35.39 35.42 35.75 35.97 34.97 34.98 34.54 34.49 34.24 34.25
56.10 50.66 55.92 53.29 51.27 50.24 48.93 46.72 44.50 42.36 40.68 38.64 38.51 38.23 37.41 37.54 37.26 37.28 37.34 37.60 37.12 36.80 35.39 34.59 33.86 33.39 34.12 35.30 35.75 35.40 35.49 35.16 34.50 34.40 33.86 32.46 31.60 31.54 31.57 31.68 31.83 31.24 32.21
54.50 56.71 55.54 52.55 50.99 49.24 48.75 46.14 43.65 40.81 39.58 37.90 37.75 37.90 37.28 36.99 36.78 36.90 37.06 37.16 36.66 35.95 34.13 33.58 33.43 33.79 34.37 34.00 33.48 33.01 33.46 33.08 32.47 31.06 30.22 29.40 29.44 28.85 29.49 29.91 30.52 32.52 32.23
53.81 51.19 50.21 52.43 49.60 48.79 46.32 44.08 41.83 39.82 38.97 38.93 37.31 36.99 37.67 37.90 37.39 37.72 38.24 37.41 35.78 34.79 33.78 33.16 33.52 33.11 32.78 32.22 32.28 32.51 31.58 30.12 28.95 28.13 27.93 27.58 27.80 28.17 28.52 29.77 30.40 30.88 30.77
54.11 55.16 49.81 51.86 51.63 49.54 46.31 44.04 41.93 40.42 40.05 38.76 37.73 38.09 35.07 37.58 36.24 36.13 35.28 34.76 34.37 33.99 33.65 32.96 32.15 31.79 32.16 32.31 31.24 30.59 29.27 28.12 27.32 27.11 27.39 27.23 27.80 28.48 29.64 29.76 29.61 30.03 31.01
54.76 55.08 53.98 53.25 52.68 50.46 47.58 45.50 45.02 43.28 40.74 38.76 35.85 34.79 31.98 36.60 35.91 34.92 34.19 34.35 33.89 33.70 33.51 32.97 32.07 32.61 31.98 30.41 29.66 29.12 27.83 27.30 27.24 27.69 28.42 28.80 29.21 29.95 30.46 30.61 30.90 31.42 32.79
55.26 55.18 54.83 53.75 52.85 47.28 47.29 47.15 46.61 43.66 39.69 37.79 36.66 37.14 36.23 35.29 34.79 34.10 34.32 33.63 33.17 32.66 32.43 33.13 33.59 32.29 31.22 30.15 29.62 28.54 27.75 28.42 29.14 28.92 28.27 28.46 29.05 29.29 29.98 30.72 33.14 33.49 34.61
56.19 55.35 53.85 52.63 51.50 49.06 48.60 46.74 43.61 39.20 39.24 37.74 37.10 35.56 35.18 34.73 34.27 33.89 32.63 32.25 32.73 33.92 34.98 34.86 33.68 32.24 30.47 30.39 30.57 29.80 29.16 29.16 28.86 28.56 29.09 29.11 28.89 29.83 30.46 31.72 33.77 34.86 36.49
54.54 52.63 51.36 49.94 48.88 46.86 44.48 42.35 42.06 41.11 39.07 37.47 35.81 34.71 33.57 33.70 33.04 32.82 31.89 32.17 33.31 33.52 34.24 34.49 32.89 32.11 31.29 32.08 31.44 30.57 30.01 30.04 29.21 29.36 29.77 29.61 29.80 30.51 31.66 33.56 35.27 37.34 37.83
51.00 50.37 48.84 46.55 44.94 44.44 43.09 41.59 39.67 37.88 36.48 35.91 34.26 33.06 32.60 31.99 31.65 31.89 32.37 33.23 32.67 32.22 32.37 32.54 33.16 33.45 33.10 32.00 31.39 30.26 30.12 30.03 29.77 29.64 30.07 30.36 30.80 32.32 33.44 33.68 35.13 37.30 37.91
MSLP
1015.07 1015.58 1016.14 1016.52 1016.85 1017.65 1017.46 1017.73 1018.21 1018.63 1019.38 1019.66 1020.02 1020.33 1020.57 1020.74 1020.75 1020.84 1021.04 1021.43 1021.72 1021.87 1021.95 1022.09 1022.05 1022.10 1022.05 1021.94 1021.94 1022.01 1022.04 1022.34 1022.48 1021.70 1021.35 1020.51 1020.21 1019.87 1019.24 1018.70 1018.31 1018.10 1017.86
1014.65 1015.19 1016.03 1016.52 1016.96 1017.67 1017.43 1017.41 1017.89 1018.49 1019.06 1019.52 1019.81 1020.28 1020.37 1020.46 1020.68 1020.69 1020.88 1021.04 1021.54 1021.72 1021.63 1021.77 1021.74 1021.67 1021.73 1021.70 1021.56 1021.43 1021.43 1021.41 1021.72 1021.67 1021.16 1020.69 1020.21 1019.76 1019.38 1019.06 1018.51 1018.11 1017.93
1014.72 1015.37 1016.02 1016.49 1016.98 1017.38 1016.98 1017.12 1017.62 1018.23 1018.99 1019.26 1019.66 1020.09 1020.32 1020.41 1020.46 1020.42 1020.45 1020.59 1021.11 1021.47 1021.49 1021.48 1021.30 1021.36 1021.41 1021.28 1021.10 1021.06 1020.84 1020.81 1021.00 1021.24 1020.95 1020.65 1020.17 1019.69 1019.41 1019.02 1018.78 1018.41 1017.89
1014.62 1015.37 1016.07 1016.26 1016.45 1016.64 1016.40 1016.86 1017.60 1017.97 1018.55 1018.83 1019.39 1019.78 1020.05 1020.17 1020.19 1020.09 1020.14 1020.24 1020.77 1021.18 1021.25 1021.05 1020.98 1020.99 1021.04 1020.83 1020.73 1020.60 1020.53 1020.69 1020.99 1021.08 1020.82 1020.55 1020.29 1019.74 1019.68 1019.55 1019.11 1018.71 1018.25
1014.35 1014.84 1015.10 1015.53 1016.10 1016.22 1016.33 1016.61 1017.17 1017.64 1018.07 1018.54 1018.94 1019.62 1020.01 1020.28 1020.18 1019.91 1019.84 1020.01 1020.51 1020.77 1020.77 1020.65 1020.64 1020.61 1020.48 1020.31 1020.17 1020.24 1020.34 1020.53 1020.46 1020.96 1021.17 1020.79 1020.31 1019.94 1019.78 1019.53 1019.40 1019.04 1018.35
1013.70 1014.00 1014.51 1014.96 1015.73 1016.16 1016.30 1016.08 1016.32 1016.95 1017.55 1018.23 1018.49 1019.25 1019.73 1019.72 1019.57 1019.63 1019.72 1020.01 1020.24 1020.62 1020.55 1020.26 1020.31 1020.22 1020.05 1020.10 1020.02 1020.02 1020.05 1020.49 1020.65 1021.07 1021.11 1020.82 1020.16 1019.78 1019.45 1019.32 1019.21 1019.16 1018.86
1012.77 1013.29 1013.81 1014.42 1015.03 1015.59 1016.09 1016.57 1016.07 1016.63 1017.30 1017.64 1018.14 1018.98 1019.28 1019.19 1019.11 1019.35 1019.50 1019.79 1020.02 1020.25 1020.40 1020.31 1020.29 1020.15 1020.10 1020.32 1020.31 1020.21 1020.20 1020.26 1020.40 1020.62 1020.71 1020.33 1019.72 1019.09 1019.03 1018.94 1018.78 1018.73 1018.40
1012.30 1012.80 1013.24 1013.79 1014.54 1015.03 1015.89 1016.10 1016.35 1016.66 1017.24 1017.76 1018.07 1018.63 1018.85 1018.70 1018.73 1019.00 1019.24 1019.51 1019.71 1020.13 1020.14 1020.19 1020.28 1020.16 1020.22 1020.47 1020.40 1020.45 1020.31 1020.12 1020.10 1020.09 1020.01 1019.57 1019.12 1018.71 1018.68 1018.42 1018.30 1018.16 1017.66
1012.26 1012.51 1012.77 1013.16 1013.78 1014.49 1015.45 1015.73 1015.79 1016.28 1016.76 1017.54 1017.74 1018.13 1018.44 1018.36 1018.50 1018.82 1019.08 1019.34 1019.62 1019.78 1019.93 1020.16 1020.16 1020.13 1020.28 1020.49 1020.55 1020.61 1020.53 1020.16 1019.74 1019.44 1019.24 1018.84 1018.44 1018.08 1018.02 1017.77 1017.83 1017.88 1017.32
1012.14 1012.25 1012.54 1012.68 1013.20 1013.84 1014.30 1015.05 1015.37 1015.75 1016.34 1017.06 1017.47 1017.72 1017.85 1018.17 1018.51 1018.83 1019.12 1019.27 1019.54 1019.74 1019.91 1020.19 1020.17 1020.13 1020.31 1020.36 1020.47 1020.66 1020.63 1020.28 1019.78 1019.27 1018.94 1018.63 1018.30 1017.89 1017.38 1017.46 1017.37 1017.27 1016.94
1012.35 1012.24 1012.36 1012.58 1012.85 1013.20 1013.89 1014.57 1014.80 1015.70 1016.41 1017.01 1017.57 1017.70 1017.79 1018.23 1018.45 1018.81 1018.93 1019.02 1019.24 1019.76 1020.00 1020.13 1019.95 1019.95 1020.12 1020.17 1020.19 1020.32 1020.32 1019.96 1019.62 1019.39 1019.11 1018.76 1018.33 1017.95 1017.52 1017.14 1016.93 1016.85 1016.57
1011.98 1012.03 1012.09 1012.29 1012.53 1012.95 1013.38 1013.22 1014.42 1015.10 1016.09 1016.79 1017.43 1017.72 1017.82 1018.09 1018.40 1018.69 1018.76 1018.69 1018.94 1019.58 1019.92 1019.88 1019.53 1019.71 1019.81 1019.85 1019.93 1019.93 1019.82 1019.65 1019.49 1019.30 1019.17 1018.85 1018.45 1017.89 1017.40 1016.98 1016.62 1016.28 1015.93
1011.49 1011.55 1011.53 1011.59 1011.84 1012.52 1013.07 1013.65 1014.99 1015.05 1015.76 1016.56 1017.15 1017.41 1017.78 1018.10 1018.40 1018.55 1018.53 1018.68 1019.02 1019.30 1019.61 1019.58 1019.51 1019.46 1019.36 1019.47 1019.65 1019.68 1019.49 1019.39 1019.45 1019.36 1019.12 1018.78 1018.25 1017.72 1017.24 1016.85 1016.27 1015.93 1015.43
1011.24 1011.28 1011.35 1011.35 1011.60 1012.21 1012.67 1013.10 1013.97 1014.66 1015.70 1016.38 1017.06 1017.22 1017.69 1018.07 1018.29 1018.50 1018.75 1018.98 1018.96 1019.17 1019.55 1019.54 1019.48 1019.15 1019.18 1019.33 1019.47 1019.53 1019.26 1019.23 1019.32 1019.21 1018.97 1018.48 1018.00 1017.54 1017.24 1016.84 1016.56 1016.05 1015.68
1011.18 1011.28 1011.34 1011.30 1011.59 1012.42 1012.93 1013.29 1013.70 1014.53 1015.18 1015.91 1016.58 1016.71 1017.42 1017.88 1018.03 1018.18 1018.69 1018.84 1018.92 1019.35 1019.42 1019.62 1019.45 1019.39 1019.49 1019.50 1019.56 1019.39 1019.04 1019.07 1019.11 1018.86 1018.78 1018.40 1017.89 1017.38 1017.03 1016.77 1016.54 1016.24 1016.02
1011.22 1011.24 1011.09 1011.29 1011.62 1012.09 1012.98 1013.74 1014.22 1014.77 1015.29 1015.65 1016.11 1016.25 1016.93 1017.33 1017.75 1018.18 1018.42 1018.61 1018.86 1019.14 1019.59 1019.59 1019.45 1019.36 1019.32 1019.27 1019.44 1019.33 1019.06 1018.89 1018.86 1018.78 1018.61 1018.22 1017.89 1017.48 1017.08 1016.65 1016.38 1016.13 1015.86
1010.84 1010.87 1010.94 1011.38 1011.90 1012.23 1013.03 1013.47 1014.68 1015.35 1015.53 1015.84 1016.04 1016.32 1016.78 1017.33 1017.83 1018.22 1018.37 1018.55 1018.76 1019.14 1019.45 1019.43 1019.33 1019.11 1018.99 1019.02 1019.20 1019.28 1019.06 1018.69 1018.68 1018.51 1018.36 1018.12 1017.85 1017.46 1017.04 1016.58 1016.21 1015.86 1015.45
1010.35 1010.55 1010.85 1011.15 1011.55 1012.09 1012.68 1013.40 1014.65 1015.37 1015.85 1016.42 1016.45 1016.70 1017.09 1017.67 1018.08 1018.27 1018.45 1018.50 1019.12 1019.38 1019.47 1019.31 1019.31 1019.16 1019.02 1018.92 1018.93 1018.93 1018.69 1018.61 1018.49 1018.40 1018.24 1018.01 1017.77 1017.48 1016.95 1016.49 1016.10 1015.77 1015.34
1010.06 1010.36 1010.67 1011.03 1011.52 1011.96 1012.70 1013.55 1014.57 1015.23 1015.55 1016.17 1016.97 1017.41 1017.82 1018.10 1018.21 1018.44 1018.57 1018.78 1019.11 1019.13 1019.14 1019.15 1019.16 1019.02 1019.03 1018.83 1018.69 1018.70 1018.70 1018.64 1018.55 1018.44 1018.17 1017.99 1017.65 1017.32 1016.75 1016.31 1015.87 1015.48 1015.09
1009.93 1010.06 1010.43 1010.77 1011.52 1011.94 1012.90 1013.96 1014.85 1015.29 1015.69 1016.53 1017.20 1017.71 1018.15 1018.17 1018.40 1018.49 1018.70 1018.86 1019.00 1019.04 1019.07 1019.15 1019.00 1018.91 1018.96 1018.88 1018.84 1018.83 1018.78 1018.65 1018.50 1018.29 1018.07 1017.78 1017.36 1016.99 1016.55 1016.10 1015.65 1015.22 1014.76
1009.41 1009.86 1010.23 1010.62 1011.03 1012.02 1012.88 1013.93 1014.52 1015.25 1015.94 1016.80 1017.27 1017.64 1017.54 1018.04 1018.34 1018.73 1019.00 1019.07 1018.91 1018.85 1018.98 1019.02 1018.95 1018.89 1018.95 1019.01 1019.01 1018.91 1018.77 1018.59 1018.34 1018.06 1017.78 1017.44 1017.06 1016.64 1016.20 1015.82 1015.33 1014.83 1014.39
1009.12 1009.45 1009.93 1010.04 1010.58 1011.51 1012.32 1013.19 1014.21 1014.93 1015.89 1016.66 1017.28 1017.61 1017.89 1018.15 1018.66 1019.14 1019.21 1019.01 1018.92 1019.01 1019.01 1018.82 1018.84 1018.93 1019.04 1019.09 1019.02 1018.89 1018.72 1018.41 1018.00 1017.73 1017.47 1017.10 1016.71 1016.29 1015.91 1015.49 1015.02 1014.53 1014.02
1008.43 1008.85 1009.26 1009.56 1010.30 1010.91 1011.94 1012.87 1013.86 1014.74 1015.87 1016.59 1017.22 1017.76 1018.04 1018.64 1019.22 1019.42 1019.17 1019.04 1019.15 1019.17 1018.93 1018.66 1018.77 1019.00 1019.06 1019.02 1018.91 1018.79 1018.56 1018.12 1017.75 1017.48 1017.22 1016.83 1016.38 1015.99 1015.65 1015.22 1014.68 1014.12 1013.60
1007.58 1008.01 1008.54 1009.15 1010.32 1011.02 1011.82 1012.83 1013.82 1014.80 1015.82 1016.67 1017.36 1018.12 1018.61 1019.16 1019.41 1019.32 1019.33 1019.42 1019.44 1019.11 1018.85 1018.78 1018.81 1018.90 1018.99 1018.93 1018.70 1018.42 1018.18 1017.82 1017.47 1017.15 1016.79 1016.47 1016.06 1015.63 1015.27 1014.77 1014.21 1013.71 1013.19
1006.66 1007.34 1008.44 1009.59 1010.09 1011.46 1012.16 1012.95 1014.04 1015.13 1016.14 1016.99 1017.95 1018.49 1019.02 1019.26 1019.48 1019.71 1019.67 1019.78 1019.61 1019.28 1019.10 1019.02 1018.95 1018.87 1018.84 1018.73 1018.44 1018.17 1017.86 1017.47 1017.10 1016.77 1016.41 1016.09 1015.68 1015.23 1014.82 1014.40 1013.88 1013.31 1012.98
1007.50 1008.25 1009.16 1010.01 1010.77 1011.44 1012.34 1013.35 1014.52 1015.62 1016.65 1017.50 1018.22 1018.82 1019.24 1019.56 1019.93 1020.04 1020.09 1019.88 1019.73 1019.61 1019.39 1019.25 1019.07 1018.88 1018.66 1018.52 1018.26 1017.98 1017.59 1017.22 1016.88 1016.46 1016.10 1015.73 1015.28 1014.73 1014.27 1013.83 1013.33 1013.03 1012.80
Wind_Speed
6 5 6 5 6 6 7 7 8 7 7 7 6 6 6 5 5 5 4 3 3 3 3 4 6 3 4 4 3 3 3 3 4 4 3 3 3 4 6 4 4 4 3
7 6 6 5 7 7 6 7 7 8 6 7 6 5 5 5 5 5 5 4 3 5 5 3 6 3 5 4 4 6 4 4 4 5 3 3 3 3 5 5 4 3 4
6 6 5 6 6 7 7 7 7 7 7 6 6 6 6 6 6 6 6 5 4 5 5 4 6 3 5 4 5 5 4 3 3 3 3 2 3 2 3 3 3 5 4
8 7 8 9 9 9 8 9 7 7 7 6 6 6 6 6 7 6 6 4 4 5 5 5 5 5 6 7 5 5 3 2 1 3 3 3 2 3 1 2 4 2 4
11 11 11 8 7 9 9 9 8 7 6 6 6 5 5 5 4 6 5 4 5 6 5 5 6 7 13 8 4 1 1 1 1 2 3 2 3 2 3 1 3 3 4
12 12 9 10 8 7 7 10 10 8 7 7 6 6 5 5 9 10 6 5 5 5 6 5 4 9 5 3 6 7 4 1 1 1 2 3 4 3 3 2 2 2 4
13 12 11 11 10 8 8 8 9 8 6 6 5 5 7 6 8 9 9 4 4 5 4 5 5 2 3 1 5 7 6 5 3 3 3 5 4 3 1 2 3 3 4
12 12 10 10 10 8 7 8 5 6 6 4 5 5 6 5 7 8 8 5 2 1 3 3 3 3 1 1 2 3 3 4 3 3 5 7 6 6 5 4 3 4 4
10 11 12 11 11 10 10 8 6 6 5 5 4 6 5 4 7 8 5 3 2 1 2 3 5 4 4 2 2 3 5 5 5 7 9 10 10 8 9 2 3 2 3
8 9 9 10 11 10 11 11 5 5 5 4 4 5 6 5 4 5 5 3 2 1 1 4 5 4 5 3 1 2 5 5 5 6 6 7 6 7 7 4 3 3 3
4 6 7 10 11 12 11 8 7 6 5 5 3 3 3 5 4 6 9 4 3 3 3 3 4 7 7 7 7 4 6 4 6 5 4 5 5 5 4 4 4 4 4
6 7 8 10 9 8 9 6 8 8 6 4 3 5 2 4 6 6 6 5 6 4 4 3 4 8 8 9 5 8 9 6 3 3 3 4 4 4 5 5 6 5 5
5 8 9 10 9 7 10 9 5 8 6 5 5 4 4 2 2 4 5 7 6 4 2 4 7 10 6 6 6 7 2 2 3 2 3 3 3 4 5 5 5 6 7
7 8 6 6 8 10 9 9 8 7 5 4 4 4 3 3 3 3 3 3 4 4 1 3 5 5 3 3 3 3 1 2 3 3 3 4 4 4 3 2 3 4 3
6 5 5 5 9 9 6 5 8 6 7 6 6 5 4 3 4 6 6 4 3 2 1 2 3 1 2 2 2 4 2 3 3 2 3 4 5 3 3 2 2 3 2
4 4 5 7 6 6 7 6 14 7 1 4 6 6 2 7 11 9 7 7 5 4 1 2 2 2 4 4 4 3 2 5 4 3 4 4 5 4 4 3 2 3 3
4 5 4 4 6 7 6 7 6 7 8 2 5 10 9 10 9 8 7 4 2 5 1 2 2 2 4 3 3 2 3 3 2 4 3 4 4 5 5 5 4 3 4
6 8 5 7 8 7 9 9 6 6 6 4 6 6 9 9 8 7 6 5 2 1 1 1 2 3 2 2 2 3 3 3 2 2 4 4 5 4 6 6 4 4 5
4 4 5 6 6 8 8 9 7 4 6 5 4 5 5 7 7 6 3 2 3 2 1 1 1 1 1 1 1 2 0 1 2 4 4 4 5 4 6 5 5 7 7
4 8 7 7 8 8 7 6 5 4 5 5 4 3 3 3 2 2 1 2 2 1 1 2 2 1 1 2 2 1 3 3 4 3 4 4 5 4 6 6 5 5 5
3 6 9 8 9 9 8 6 6 5 6 4 4 4 6 5 5 3 2 2 2 2 2 1 2 0 1 1 1 2 3 4 4 4 4 5 5 6 5 5 5 5 5
5 7 9 11 11 11 9 7 7 7 6 5 3 3 6 5 5 3 2 1 1 1 1 3 2 2 2 0 2 3 4 5 5 4 5 5 5 5 5 5 5 5 5
6 8 10 10 10 10 9 8 8 8 6 5 5 5 5 5 4 3 3 3 2 0 0 3 4 2 1 2 2 3 5 6 5 4 5 5 5 5 4 5 5 5 5
9 12 12 12 9 9 9 9 8 9 8 6 6 5 5 4 4 4 3 3 2 3 3 4 3 2 1 3 4 4 4 5 4 5 6 5 5 6 5 5 6 7 6
10 12 12 8 9 8 10 10 10 10 8 8 6 5 4 4 4 3 3 2 3 4 5 4 3 3 3 6 7 7 7 7 6 6 4 5 6 8 5 5 6 7 5
9 9 8 7 8 10 10 11 10 9 8 7 6 5 5 5 4 3 2 3 4 4 4 3 4 6 6 5 7 8 7 8 8 9 6 4 5 5 5 6 8 3 5
Wind_Direction
172 166 156 187 169 175 166 173 181 158 168 170 174 182 182 160 170 168 186 162 203 247 267 256 276 267 287 286 248 226 221 176 238 292 247 276 289 310 315 329 10 358 337
170 159 173 175 162 176 175 164 154 165 166 175 171 187 189 171 171 174 181 182 223 256 254 244 263 277 280 274 267 260 238 220 203 254 260 284 263 272 269 295 318 318 321
158 176 174 172 165 185 165 152 150 150 173 166 166 190 204 202 193 200 191 187 210 232 246 249 273 279 284 276 265 271 242 218 201 231 273 270 268 290 314 304 300 308 306
166 178 196 195 190 185 165 158 156 157 166 166 188 204 202 202 202 200 198 193 227 246 258 257 271 273 267 276 278 270 273 308 298 253 265 269 256 298 278 270 311 307 305
185 188 197 183 194 177 171 159 157 160 173 177 175 204 204 213 219 214 211 214 236 265 269 274 273 282 287 296 249 324 83 349 325 296 282 290 288 297 255 273 272 297 291
188 199 183 177 189 193 186 164 159 173 174 173 177 206 223 237 220 210 198 223 239 240 275 298 304 311 331 101 89 89 105 241 303 241 280 265 270 253 257 252 252 334 318
190 190 181 179 182 185 182 187 176 180 161 166 185 209 231 230 233 224 212 203 201 229 274 313 314 13 71 37 27 45 38 30 139 192 244 246 263 247 256 282 248 224 240
196 196 180 178 186 178 185 198 180 144 158 170 205 218 225 233 221 228 210 196 212 263 267 270 207 179 204 70 49 22 351 330 295 275 236 264 258 271 217 242 255 261 263
196 194 187 180 175 170 194 186 185 153 136 183 192 196 216 245 228 228 191 180 198 232 301 208 183 188 226 140 53 349 321 310 296 295 299 292 280 277 254 182 256 251 290
205 200 186 179 185 184 184 195 169 155 157 167 205 203 205 238 255 248 173 145 150 214 266 238 217 222 226 208 234 281 301 281 310 323 328 331 320 313 310 218 272 260 262
220 191 184 193 196 193 189 184 142 125 132 127 258 246 226 237 246 165 161 156 176 178 212 251 245 245 238 237 225 226 243 279 301 318 315 305 306 311 309 308 275 241 268
210 206 200 203 204 194 171 149 125 128 139 166 226 252 250 264 230 197 171 144 143 156 205 246 248 246 247 238 254 253 271 278 294 324 331 313 309 309 316 307 295 276 245
237 227 217 208 200 170 154 137 141 148 158 184 206 205 239 187 137 152 143 135 156 147 183 247 270 270 254 245 259 277 287 341 326 323 313 286 269 280 291 303 299 277 272
272 260 241 185 153 157 145 151 161 169 164 181 193 209 218 180 169 144 115 107 106 83 359 308 283 274 231 220 277 267 278 286 256 262 291 291 292 305 298 289 297 315 313
268 253 199 162 155 156 148 172 166 173 174 176 211 175 177 175 203 160 163 161 133 202 33 322 348 353 250 256 269 270 314 306 295 269 279 291 286 275 280 285 275 296 278
268 225 190 178 172 146 142 105 52 64 332 257 253 164 122 145 144 153 147 142 186 181 144 222 255 251 237 232 234 265 278 281 285 299 292 286 298 306 295 288 266 270 284
263 231 197 151 147 143 138 127 114 34 61 76 168 129 136 147 130 130 133 175 160 135 183 217 237 256 261 252 251 252 268 279 277 292 289 309 308 300 304 301 293 285 293
277 242 207 181 160 154 145 131 127 163 144 131 55 81 98 115 130 146 171 88 42 26 177 190 296 309 307 255 250 254 290 315 314 327 315 310 303 294 305 297 290 289 290
242 233 193 164 159 141 136 126 162 163 131 118 85 66 113 149 167 186 157 144 177 181 131 76 234 75 51 219 289 324 341 343 313 312 302 298 293 294 299 286 282 289 287
231 189 176 154 135 125 119 147 139 130 119 131 147 163 182 108 137 91 91 142 147 140 146 197 181 180 278 350 17 25 324 318 311 298 293 289 286 278 289 296 295 296 292
185 181 174 146 142 139 142 164 142 142 137 157 179 198 164 150 134 126 131 164 158 148 179 194 181 292 47 59 322 303 302 298 296 291 289 291 293 302 295 286 286 287 283
190 179 181 166 152 156 155 150 154 148 152 152 158 77 144 111 110 130 175 146 103 87 210 174 135 118 121 343 320 321 308 295 293 289 294 293 298 296 292 291 293 291 288
195 184 181 160 159 140 150 155 156 139 142 129 125 126 103 107 138 173 116 72 72 122 52 109 120 105 17 338 327 296 291 295 294 292 289 292 296 292 288 289 292 297 295
210 189 164 144 151 155 152 142 132 125 127 121 115 111 117 134 141 98 78 63 67 58 57 89 84 117 359 336 312 304 294 297 295 286 291 287 290 294 286 287 290 294 294
145 123 122 137 148 135 122 123 124 121 119 119 123 112 115 115 94 93 79 72 80 66 51 44 27 348 334 332 325 325 318 319 311 302 294 290 285 289 284 289 299 309 335
78 100 118 134 128 128 127 122 117 116 118 118 112 113 113 104 107 97 97 90 74 56 48 25 4 355 339 331 328 327 323 324 320 318 311 293 296 299 289 282 286 298 332